Weather in Ilheus

Brazil     14°47′23″S   39°03′01″W
temp.,
°C
wind,
m/s
gust,
m/s
humid.,
%
clouds,
%
prec.,
mm/h
press.,
hPa
HPBL,
m
15 june, tue
tue1500:00+23s597689 0.1 1018758
03:00+20sw368982 0.1 1017412
06:00+20sw358681 0.3 1018283
09:00+24s346917 0.4 1020838
12:00+24se456961 0.1 1018599
15:00+24se3465100 0.2 1016549
18:00+23se357168 0.0 1017417
21:00+22se35766 0.0 1018420
16 june, wed
wed1600:00+21s24804 0.0 1017453
03:00+19sw238933 0.0 1016169
06:00+18wsw239433 0.0 1017106
09:00+24sw11665 0.0 1018601
12:00+25e336539 0.0 10171048
15:00+25ese336679 0.0 1014625
18:00+22ese357666 0.0 1016291
21:00+22se24775 0.0 1018338
17 june, thu
thu1700:00+21sse13805 0.0 1018388
03:00+20ssw138523 0.0 1017430
06:00+19sw238966 0.0 1018179
09:00+23s2472100 0.0 1020543
12:00+24sse3473100 0.2 1019746
15:00+25se4568100 0.4 1017922
18:00+23se3680100 0.3 1019511
21:00+22se368288 0.4 1020513
18 june, fri
fri1800:00+22sse358182 0.0 1019487
03:00+21sse2485100 0.1 1018472
06:00+22sse138195 0.1 1020496
09:00+24sse247038 0.3 1022747
12:00+25se456693 0.2 1021959
15:00+25se446275 0.3 10191020
18:00+23se357648 0.0 1020434
21:00+22sse357699 0.1 1021533
19 june, sat
sat1900:00+21sse258290 0.1 1021484
03:00+21s2586100 0.1 1020463
06:00+20ssw258898 0.0 1021453
09:00+25s347237 0.3 1022779
12:00+26se456812 0.3 1021985
15:00+26se456534 0.4 10191027
18:00+23se36814 0.1 1020445
21:00+22se258224 0.1 1021442